This is the latest recevied weather packets stored in our database for station/object N3AVN. If no packets are shown the sender has not sent any weather packets the latest 10 day(s).
| Time | Temp. | Humidity | Pressure | Rain* | Wind** | Luminosity | Snow |
|---|---|---|---|---|---|---|---|
| 1777564784 | 10.56° C | 98% | 1006 hPa | 0 mm | - | 137 W/m² | - |
| 1777564479 | 10.56° C | 98% | 1005.9 hPa | 0 mm | - | 87 W/m² | - |
| 1777564175 | 10.56° C | 98% | 1005.7 hPa | 0 mm | - | 99 W/m² | - |
| 1777563871 | 10.56° C | 98% | 1005.8 hPa | 0 mm | - | 127 W/m² | - |
| 1777563568 | 10.56° C | 98% | 1005.8 hPa | 0.51 mm | - | 100 W/m² | - |
| 1777563267 | 10° C | 98% | 1005.7 hPa | 0.51 mm | - | 91 W/m² | - |
| 1777562964 | 10.56° C | 99% | 1005.9 hPa | 0 mm | - | 83 W/m² | - |
| 1777562660 | 10° C | 99% | 1005.8 hPa | 0 mm | - | 84 W/m² | - |
| 1777562360 | 10° C | 99% | 1006 hPa | 0 mm | - | 69 W/m² | - |
| 1777562055 | 10° C | 98% | 1005.9 hPa | 0 mm | - | 86 W/m² | - |
| 1777561753 | 9.44° C | 98% | 1006 hPa | 0 mm | - | 37 W/m² | - |
| 1777561449 | 9.44° C | 98% | 1006 hPa | 0 mm | - | 32 W/m² | - |
| 1777561143 | 9.44° C | 99% | 1005.9 hPa | 0 mm | - | 40 W/m² | - |
| 1777560838 | 9.44° C | 98% | 1006.1 hPa | 0 mm | - | 34 W/m² | - |
| 1777560537 | 10° C | 99% | 1005.8 hPa | 0 mm | - | 32 W/m² | - |
| 1777560234 | 9.44° C | 99% | 1005.9 hPa | 0 mm | - | 43 W/m² | - |
| 1777559926 | 9.44° C | 99% | 1005.8 hPa | 0 mm | - | 50 W/m² | - |
| 1777559621 | 9.44° C | 99% | 1006.1 hPa | 0 mm | - | 55 W/m² | - |
| 1777559318 | 9.44° C | 99% | 1005.9 hPa | 0 mm | - | 40 W/m² | - |
| 1777559014 | 9.44° C | 99% | 1005.7 hPa | 0 mm | - | 49 W/m² | - |
| 1777558710 | 9.44° C | 99% | 1006 hPa | 0 mm | - | 51 W/m² | - |
| 1777558406 | 9.44° C | 99% | 1005.8 hPa | 0 mm | - | 56 W/m² | - |
| 1777558102 | 9.44° C | 99% | 1005.9 hPa | 0 mm | - | 40 W/m² | - |
| 1777557799 | 9.44° C | 99% | 1006 hPa | 0 mm | - | 38 W/m² | - |
| 1777557495 | 9.44° C | 99% | 1006 hPa | 0 mm | - | 34 W/m² | - |
* Rain latest hour (hover to see other rain measurements)
** Current wind speed in m/s (hover to see current wind gust speed)